Showing default

OV1-2, 1613

Orbit data source: Space-Track

OV1-2, 1613 is a payload satellite owned by USAF OAR (US) in LEO that was launched on Tue, 05 Oct 1965 UTC via an ATLAS D launch vehicle from the Air Force Western Test Range (AFWTR). Payload-class satellites include a variety of spacecraft equipped with specific instruments for various scientific and technological missions. These include communications satellites like Starlink; space stations such as the ISS; scientific satellites like the Hubble; Earth observation satellites from companies like Planet Labs, Umbra, and HawkEye 360; GPS; miniature CubeSats for education and research; and military/defense satellites.

Loading next visibility...
Identifier
1613, 1965-078A
Orbit
LEO
Country
Flag of USUS
Related business
Manufacturer
GD/Convair
Mission
Spacecraft
Bus & Motor
OV1, Unknown motor
Mass
86 kg wet, 86 kg dry
Launch date (UTC)
1965-10-05 (60 years ago)
Launch vehicle
ATLAS D
Launch site
Air Force Western Test Range (AFWTR)
Object type
Payload
Rocket body
Debris
Shape & HBR
Unknown
Radar Cross Section
Medium (>0.1 m² and <1 m²)

Expand to show TLE details & history
Last TLE update: 12 hours ago

TLE from 12 hours ago
0 OV1-2
1  1613U 65078A   25300.26632397  .00004403  00000-0  41103-3 0  9998
2  1613 144.2257  67.5265 1139235 345.4513  11.5942 12.98781667684395
Epoch: 2025-10-27T06:23Z
TLE epoch observation values (Epoch: 2025-10-27T06:23:30.391Z)
Latitude
-0.00003°
Longitude
-64.22073°
Altitude
417.666 km
Speed
8.075 km/s
True Right ascension
04h 30m 06s
True Declination
0° 00' 00"
Sunlit
Object was in full shadow at epoch
Visualization orbit readout
Latitude
Unknown
Longitude
Unknown
Altitude
Unknown
Speed
Unknown
Apparent Right ascension
Unknown
Apparent Declination
Unknown
Sunlit
N/A
Visualization observer readout
Local Sidereal Time
13:58:16
Azimuth
Unknown
Elevation
Unknown
Doppler factor
Unknown
Orbital elements
Apogee altitude
2,141.009 km
Perigee altitude
398.464 km
Semi-major axis
7,647.873 km
Eccentricity
0.11392
Inclination
144.2257°
RAAN
67.5265°
Arg. of periapsis
345.4513°
True anomaly
14.6385°
Mean anomaly
11.5942°
Eccentric anomaly
13.07034°
Mean motion
3.24513 °/min
Orbital period
110.94 mins
BSTAR
0.00041103
Loading maneuver chart data...
Computing Atmospheric mass density...
Loading historical data...
Loading historical data...
Loading historical data...
Loading historical data...
Loading historical data...
Loading historical data...
Loading historical data...
Other satellites on launch #78 in the year 1965 (1965-10-05 UTC)

Documentation

Showing up to 5 results
|